Weather History for EIDW - October, 2012

Change the Weather History Date:

Tuesday, October 23, 2012

  Actual Average Record
Temperature  
Mean Temperature 52 °F -  
Max Temperature 54 °F 52 °F - (-1)
Min Temperature 51 °F 41 °F - (-1)
Degree Days  
Heating Degree Days 12    
Growing Degree Days 2 (Base 50)    
Moisture  
Dew Point 52 °F    
Average Humidity 97    
Maximum Humidity 100    
Minimum Humidity 88    
Precipitation  
Precipitation 0.04 in 0.09 in - ()
Sea Level Pressure  
Sea Level Pressure 30.30 in    
Wind  
Wind Speed 8 mph ()    
Max Wind Speed 14 mph    
Max Gust Speed -    
Visibility 3.7 miles    
Events Fog , Rain    
Averages and records for this station are not official NWS values.
T = Trace of Precipitation, MM = Missing Value Source: Averaged Metar Reports

Daily Weather History Graph

Daily Weather History Graph

Search for Another Location

Airport or City:

Trip Planner

Search our weather history database for the weather conditions in past years. The results will help you decide how hot, cold, wet, or windy it might be!

Date:

Astronomy

Oct. 23, 2012 Rise Set
Actual Time 8:07 AM IST 6:10 PM IST
Civil Twilight 7:31 AM IST 6:46 PM IST
Nautical Twilight 6:50 AM IST 7:26 PM IST
Astronomical Twilight 6:10 AM IST 8:07 PM IST
Moon 3:31 PM IST (10/23) 12:53 AM IST (10/23)
Length of Visible Light 11h 14m
Length of Day
10h 02m
Waxing Gibbous, 64% of the Moon is Illuminated
Oct 23
Waxing Gibbous
Oct 29
Full
Nov 7
Last Quarter
Nov 13
New
Nov 20
First Quarter

Hourly Weather History & Observations

Time (IST) Temp. Dew Point Humidity Pressure Visibility Wind Dir Wind Speed Gust Speed Precip Events Conditions
12:00 AM 53.6 °F 51.8 °F 94% 30.24 in 6.2 mi NE 5.8 mph - N/A   Overcast
12:30 AM 53.6 °F 51.8 °F 94% 30.24 in 6.2 mi ENE 6.9 mph - N/A   Overcast
1:00 AM 53 °F 51 °F 92% 30.27 in 9 mi ENE 8.9 mph - -   Mist
1:00 AM 53.6 °F 51.8 °F 94% 30.24 in 6.2 mi ENE 9.2 mph - N/A   Overcast
1:30 AM 53.6 °F 51.8 °F 94% 30.27 in 2.5 mi ENE 8.1 mph - N/A   Light Drizzle
2:00 AM 53.6 °F 51.8 °F 94% 30.27 in 1.9 mi ENE 6.9 mph - N/A   Light Drizzle
2:30 AM 53.6 °F 51.8 °F 94% 30.27 in 1.9 mi ENE 9.2 mph - N/A   Light Drizzle
3:00 AM 53.6 °F 51.8 °F 94% 30.27 in 1.9 mi NE 6.9 mph - N/A   Light Drizzle
3:30 AM 53.6 °F 51.8 °F 94% 30.27 in 1.9 mi NE 6.9 mph - N/A   Light Drizzle
4:00 AM 53.6 °F 53.6 °F 100% 30.24 in 1.9 mi NE 8.1 mph - N/A   Light Drizzle
4:30 AM 53.6 °F 53.6 °F 100% 30.24 in 1.2 mi NE 6.9 mph - N/A   Light Drizzle
5:00 AM 53.6 °F 53.6 °F 100% 30.27 in 0.9 mi NE 8.1 mph - N/A   Light Drizzle
5:30 AM 53.6 °F 53.6 °F 100% 30.27 in 0.9 mi NE 8.1 mph - N/A   Light Drizzle
6:00 AM 53.6 °F 53.6 °F 100% 30.27 in 0.9 mi NE 10.4 mph - N/A   Light Drizzle
6:30 AM 53.6 °F 53.6 °F 100% 30.27 in 0.9 mi NE 9.2 mph - N/A   Light Drizzle
7:00 AM 53 °F 53 °F 99% 30.28 in 1 mi NE 11.2 mph - - Rain Light Drizzle
7:00 AM 53.6 °F 53.6 °F 100% 30.27 in 0.9 mi NE 11.5 mph - N/A   Light Drizzle
7:30 AM 53.6 °F 53.6 °F 100% 30.27 in 0.9 mi NE 9.2 mph - N/A   Light Drizzle
8:00 AM 53.6 °F 53.6 °F 100% 30.27 in 0.9 mi ENE 9.2 mph - N/A   Light Drizzle
8:30 AM 53.6 °F 53.6 °F 100% 30.30 in 0.5 mi ENE 9.2 mph - N/A Fog Fog
9:00 AM 53.6 °F 53.6 °F 100% 30.30 in 0.5 mi ENE 8.1 mph - N/A Fog Light Fog
9:30 AM 53.6 °F 53.6 °F 100% 30.30 in 0.5 mi ENE 8.1 mph - N/A Fog Light Fog
10:00 AM 53.6 °F 53.6 °F 100% 30.30 in 0.7 mi NE 8.1 mph - N/A   Light Drizzle
10:30 AM 53.6 °F 53.6 °F 100% 30.33 in 1.0 mi NE 9.2 mph - N/A   Drizzle
11:00 AM 53.6 °F 53.6 °F 100% 30.33 in 1.5 mi NE 10.4 mph - N/A   Drizzle
11:30 AM 53.6 °F 53.6 °F 100% 30.33 in 1.5 mi ENE 9.2 mph - N/A   Drizzle
12:00 PM 53.6 °F 53.6 °F 100% 30.33 in 2.5 mi NE 8.1 mph - N/A   Drizzle
12:30 PM 53.6 °F 53.6 °F 100% 30.33 in 2.5 mi NE 9.2 mph - N/A   Drizzle
1:00 PM 53 °F 53 °F 99% 30.34 in 2 mi NE 13.4 mph - - Rain Light Drizzle
1:00 PM 53.6 °F 53.6 °F 100% 30.33 in 2.2 mi NE 12.7 mph - N/A   Drizzle
1:30 PM 53.6 °F 53.6 °F 100% 30.33 in 1.9 mi NE 11.5 mph - N/A   Drizzle
2:00 PM 53.6 °F 51.8 °F 94% 30.33 in 2.5 mi NE 10.4 mph - N/A   Mostly Cloudy
2:30 PM 53.6 °F 51.8 °F 94% 30.33 in 3.7 mi NE 10.4 mph - N/A   Mostly Cloudy
3:00 PM 53.6 °F 51.8 °F 94% 30.33 in 6.2 mi NE 10.4 mph - N/A   Mostly Cloudy
3:30 PM 53.6 °F 51.8 °F 94% 30.33 in 6.2 mi NE 10.4 mph - N/A   Mostly Cloudy
4:00 PM 53.6 °F 51.8 °F 94% 30.30 in 6.2 mi NE 10.4 mph - N/A   Mostly Cloudy
4:30 PM 53.6 °F 51.8 °F 94% 30.30 in 6.2 mi NNE 9.2 mph - N/A   Mostly Cloudy
5:00 PM 53.6 °F 51.8 °F 94% 30.30 in 6.2 mi NNE 13.8 mph - N/A   Mostly Cloudy
5:30 PM 53.6 °F 51.8 °F 94% 30.30 in 6.2 mi NE 12.7 mph - N/A   Mostly Cloudy
6:00 PM 51.8 °F 51.8 °F 100% 30.30 in 6.2 mi NNE 11.5 mph - N/A   Mostly Cloudy
6:30 PM 53.6 °F 51.8 °F 94% 30.30 in 6.2 mi NE 11.5 mph - N/A   Mostly Cloudy
7:00 PM 53 °F 51 °F 91% 30.34 in 11 mi NE 13.4 mph - - Rain Light Drizzle
7:00 PM 51.8 °F 51.8 °F 100% 30.33 in 6.2 mi NE 12.7 mph - N/A   Light Drizzle
7:30 PM 51.8 °F 51.8 °F 100% 30.33 in 6.2 mi NNE 11.5 mph - N/A   Light Drizzle
8:00 PM 51.8 °F 51.8 °F 100% 30.33 in 6.2 mi NNE 11.5 mph - N/A   Light Drizzle
8:30 PM 51.8 °F 50.0 °F 94% 30.33 in 6.2 mi NNE 10.4 mph - N/A   Light Drizzle
9:00 PM 51.8 °F 50.0 °F 94% 30.33 in 6.2 mi NNE 11.5 mph - N/A   Mostly Cloudy
9:30 PM 51.8 °F 50.0 °F 94% 30.33 in 6.2 mi NNE 11.5 mph - N/A   Light Drizzle
10:00 PM 51.8 °F 50.0 °F 94% 30.33 in 6.2 mi NNE 10.4 mph - N/A   Light Drizzle
10:30 PM 51.8 °F 50.0 °F 94% 30.30 in 6.2 mi NNE 9.2 mph - N/A   Light Drizzle
11:00 PM 53.6 °F 50.0 °F 88% 30.30 in 6.2 mi NNE 10.4 mph - N/A   Light Drizzle
11:30 PM 51.8 °F 50.0 °F 94% 30.30 in 6.2 mi NNE 10.4 mph - N/A   Light Drizzle